Regional Weather Roundup
Issued by NWS

Home | Current Version | Previous Version | Graphics & Text | Print | Product List | Glossary On
Versions: 1 2 3 4 5 6 7 8 9 10 11 12 13 14 15 16 17 18 19 20 21 22 23 24 25 26 27 28 29 30 31 32 33 34 35 36 37 38 39 40 41 42 43 44 45 46 47 48 49 50
089
ASUS43 KLSX 200057
RWRMO

WEATHER SUMMARY FOR MISSOURI
NATIONAL WEATHER SERVICE SPRINGFIELD MO
700 PM CST SUN NOV 19 2017

NOTE: "FAIR" INDICATES FEW OR NO CLOUDS BELOW 12,000 FEET WITH NO
       SIGNIFICANT WEATHER AND/OR OBSTRUCTIONS TO VISIBILITY.
       CURRENT SKY AND/OR WEATHER CONDITIONS ARE NOT AVAILABLE FOR
       CHILLICOTHE AND FARMINGTON.

MOZ001>031-035>038-043-044-053-054-200200-
...NORTHERN AND WESTERN MISSOURI...

CITY           SKY/WX    TMP DP  RH WIND       PRES   REMARKS
KANSAS CTY INT PTCLDY    38  29  70 S10       30.08F
LEE`S SUMMIT   CLEAR     45  30  55 S12       30.11F
ST JOSEPH      CLEAR     42  28  57 S3        30.06F
CHILLICOTHE      N/A     40  27  59 S6        30.09F

$$
MOZ066>068-077>081-088>096-101>105-200200-
...SOUTHWEST MISSOURI...

CITY           SKY/WX    TMP DP  RH WIND       PRES   REMARKS
SPRINGFIELD    CLEAR     35  27  72 S5        30.19R
JOPLIN         CLEAR     41  30  65 S7        30.19S
BRANSON        PTCLDY    37  27  65 CALM      30.22R

$$
MOZ032>034-039>042-045>050-055>058-069>072-200200-
...CENTRAL MISSOURI...

CITY           SKY/WX    TMP DP  RH WIND       PRES   REMARKS
COLUMBIA       NOT AVBL
JEFFERSON CITY CLEAR     38  24  57 SE3       30.18S
ROLLA          CLEAR     35  22  58 S6        30.18F
SEDALIA        CLEAR     37  29  72 S9        30.16F
WARRENSBURG    CLEAR     37  28  70 S7        30.14F

$$
MOZ051-052-059>065-200200-
...EAST CENTRAL MISSOURI...

CITY           SKY/WX    TMP DP  RH WIND       PRES   REMARKS
ST LOUIS INTL  CLEAR     36  23  59 CALM      30.20S

$$
MOZ072>076-082>087-097>100-106>115-200200-
...SOUTH CENTRAL AND SOUTHEAST MISSOURI...

CITY           SKY/WX    TMP DP  RH WIND       PRES   REMARKS
CAPE GIRARDEAU CLEAR     32  26  78 CALM      30.21F
POPLAR BLUFF   CLEAR     36  25  64 CALM      30.21F
WEST PLAINS    CLEAR     35  20  54 CALM      30.21R

$$



USA.gov is the U.S. government's official web portal to all federal, state and local government web resources and services.